Location: Twillingate Astronomical Observatory
(49.6173°N, 54.7580°W)
Time: 21:56:02
(UTC-02:-30)

Amateur Radio Satellites - All Passes

Search period start: 30 August 2016 21:26
Search period end: 31 August 2016 21:26
Location: Twillingate Astronomical Observatory, 49.6173°N, 54.7580°W

Satellite Date Start Highest point End Downlink Frequencies (MHz)
Time Altitude Azimuth
O/OREOS (USA 219) 30 Aug 21:31:49 21:34:32 15° 41° (NE) 21:37:15 437.305
HO-68 30 Aug 21:38:29 21:44:15 25° 269° (W) 21:50:02 435.675
DELFI C3 30 Aug 21:48:26 21:52:21 71° 73° (ENE) 21:56:19 145.870
GONETS M04 30 Aug 21:49:26 21:57:10 32° 61° (ENE) 22:04:51
Oscar 11 30 Aug 21:49:34 21:53:45 51° 260° (W) 21:57:59 145.826/435.025
SEEDS 30 Aug 21:54:39 21:56:31 13° 273° (W) 21:58:23 437.485
AIST 1 30 Aug 21:57:29 21:59:44 14° 278° (W) 22:01:59
FUNcube-1 30 Aug 22:01:45 22:05:55 42° 262° (W) 22:10:02 145.935
AAUSAT CUBESAT 2 30 Aug 22:15:53 22:17:50 13° 272° (W) 22:19:48 437.432
AUBIESAT-1 30 Aug 22:16:24 22:20:33 33° 60° (ENE) 22:24:37 437.475
UWE-3 30 Aug 22:19:29 22:22:48 20° 269° (W) 22:26:05 435.000/436.395/437.385
PCSat 30 Aug 22:22:46 22:25:24 14° 257° (WSW) 22:28:02 145.827
M-CUBED/EXP-1 PRIME 30 Aug 22:24:39 22:29:09 46° 63° (ENE) 22:33:35 437.505
ZACube-1 30 Aug 22:25:58 22:29:33 24° 267° (W) 22:33:06 437.345
STRAND 1 30 Aug 22:27:40 22:30:55 17° 305° (NW) 22:34:10 437.568
CUBEBUG 2 30 Aug 22:30:54 22:32:42 12° 273° (W) 22:34:29 437.445
Cosmos 2499 30 Aug 22:32:02 22:38:30 37° 67° (ENE) 22:44:59 435.465 / 435.565
TIGRISAT 30 Aug 22:32:25 22:35:14 17° 90° (E) 22:38:02 435.000
AISAT 30 Aug 22:36:35 22:39:25 17° 58° (ENE) 22:42:16 437.250
ESTCUBE 1 30 Aug 22:41:14 22:45:02 28° 64° (ENE) 22:48:53 437.505/2401.250
HUMSAT D 30 Aug 22:41:36 22:45:42 64° 259° (WSW) 22:49:48 437.325/437.525
PRISM 30 Aug 22:46:39 22:50:39 44° 291° (WNW) 22:54:39 437.425
UNISAT 6 30 Aug 23:01:26 23:05:22 34° 96° (E) 23:09:14 437.425
O/OREOS (USA 219) 30 Aug 23:10:08 23:14:46 77° 62° (ENE) 23:19:22 437.305
CUBEBUG 1 30 Aug 23:15:00 23:19:05 38° 67° (ENE) 23:23:12 437.445
50 SAT 30 Aug 23:15:45 23:18:48 27° 67° (ENE) 23:21:53 437.505
RS-15 30 Aug 23:17:14 23:22:34 14° 91° (E) 23:27:59 29.354- 29.394
SPROUT 30 Aug 23:17:40 23:20:45 20° 61° (ENE) 23:23:51 437.525
VELOX 1 30 Aug 23:21:57 23:26:03 38° 67° (ENE) 23:30:12 145.980
DELFI C3 30 Aug 23:26:04 23:27:42 12° 272° (W) 23:29:20 145.870
DX 1 30 Aug 23:27:48 23:31:39 31° 65° (ENE) 23:35:32 434.975-435.025
SO-50 30 Aug 23:28:16 23:32:53 46° 122° (ESE) 23:37:29 436.795
QB50P2 30 Aug 23:35:35 23:37:45 14° 88° (E) 23:39:54 145.880/145.840
ANTELSAT 30 Aug 23:38:04 23:42:23 78° 104° (ESE) 23:46:38 437.575/2403.000
POLYITAN 1 30 Aug 23:38:05 23:40:16 14° 88° (E) 23:42:25 437.675
NANOSAT C BR1 30 Aug 23:43:15 23:45:37 15° 89° (E) 23:47:58 145.865
DANDE 30 Aug 23:45:59 23:47:52 17° 88° (E) 23:49:59 436.750
GONETS M04 30 Aug 23:46:01 23:54:53 74° 265° (W) 00:03:39
AUBIESAT-1 30 Aug 23:50:35 23:54:54 37° 257° (WSW) 23:59:10 437.475
JAS-2 30 Aug 23:54:34 23:59:31 20° 88° (E) 00:04:45 435.910
CUSAT 1 30 Aug 23:56:47 00:00:05 78° 281° (WNW) 00:04:26 437.405
M-CUBED/EXP-1 PRIME 30 Aug 23:59:46 00:03:46 27° 260° (W) 00:07:46 437.505
UKube-1 31 Aug 00:01:12 00:05:23 50° 70° (ENE) 00:09:36 .
TIGRISAT 31 Aug 00:08:06 00:12:20 56° 289° (WNW) 00:16:28 435.000
BUGSAT 1 31 Aug 00:09:41 00:10:47 11° 87° (E) 00:11:51 437.445
AISAT 31 Aug 00:10:54 00:15:22 73° 257° (WSW) 00:19:53 437.250
ESTCUBE 1 31 Aug 00:17:31 00:21:44 39° 263° (W) 00:25:58 437.505/2401.250
Cosmos 2499 31 Aug 00:25:06 00:31:51 49° 270° (W) 00:38:38 435.465 / 435.565
QB50P1 31 Aug 00:28:13 00:32:14 41° 98° (E) 00:36:14 145.935-145.965
SWISSCUBE 31 Aug 00:38:17 00:38:48 10° 50° (NE) 00:39:19 437.505
UNISAT 6 31 Aug 00:38:19 00:42:01 29° 295° (WNW) 00:45:41 437.425
POPSAT HIP 1 31 Aug 00:38:31 00:42:39 52° 100° (E) 00:46:45 437.405
50 SAT 31 Aug 00:49:19 00:52:21 26° 265° (W) 00:55:26 437.505
O/OREOS (USA 219) 31 Aug 00:50:59 00:53:34 15° 261° (W) 00:56:09 437.305
CUBEBUG 1 31 Aug 00:51:42 00:55:28 27° 266° (W) 00:59:17 437.445
SPROUT 31 Aug 00:52:06 00:56:20 56° 260° (W) 01:00:36 437.525
BEESAT 31 Aug 00:53:19 00:55:21 13° 53° (NE) 00:57:24 436.000
TISAT 1 31 Aug 00:58:27 01:02:30 44° 69° (ENE) 01:06:33 437.305
VELOX 1 31 Aug 00:58:47 01:02:37 28° 265° (W) 01:06:28 145.980
DUCHIFAT 1 31 Aug 01:01:59 01:06:12 82° 104° (ESE) 01:10:23 145.980
DX 1 31 Aug 01:03:50 01:07:48 33° 263° (W) 01:11:49 434.975-435.025
SO-50 31 Aug 01:08:59 01:13:30 38° 322° (NW) 01:17:57 436.795
QB50P2 31 Aug 01:09:50 01:14:04 71° 286° (WNW) 01:18:15 145.880/145.840
POLYITAN 1 31 Aug 01:12:21 01:16:34 70° 287° (WNW) 01:20:44 437.675
ANTELSAT 31 Aug 01:16:10 01:18:32 15° 302° (WNW) 01:20:53 437.575/2403.000
NANOSAT C BR1 31 Aug 01:17:37 01:21:49 66° 287° (WNW) 01:25:57 145.865
Oscar 19 31 Aug 01:18:44 01:21:27 14° 86° (E) 01:24:09 437.125/150
RS-15 31 Aug 01:20:49 01:32:00 58° 115° (ESE) 01:43:45 29.354- 29.394
DANDE 31 Aug 01:28:19 01:30:30 20° 295° (WNW) 01:32:59 436.750
JAS-2 31 Aug 01:38:26 01:45:18 86° 104° (ESE) 01:52:54 435.910
UKube-1 31 Aug 01:38:31 01:41:43 20° 268° (W) 01:44:57 .
ITUPSAT 1 31 Aug 01:40:37 01:44:41 29° 63° (ENE) 01:48:46 437.325
BUGSAT 1 31 Aug 01:42:37 01:46:47 85° 285° (WNW) 01:50:51 437.445
GONETS M04 31 Aug 01:44:45 01:50:06 18° 288° (WNW) 01:55:26
QB50P1 31 Aug 02:04:26 02:07:49 24° 297° (WNW) 02:11:11 145.935-145.965
PHONESAT 2.4 31 Aug 02:08:49 02:10:16 13° 169° (S) 02:11:43 2401.200-2431.200
SWISSCUBE 31 Aug 02:10:59 02:15:38 57° 70° (ENE) 02:20:18 437.505
MOZHAYETS 4 31 Aug 02:13:17 02:14:33 11° 53° (NE) 02:15:50
POPSAT HIP 1 31 Aug 02:15:02 02:18:07 20° 299° (WNW) 02:21:10 437.405
BEESAT 31 Aug 02:27:36 02:32:20 73° 72° (ENE) 02:37:06 436.000
TISAT 1 31 Aug 02:35:02 02:38:21 22° 267° (W) 02:41:41 437.305
DUCHIFAT 1 31 Aug 02:39:10 02:41:19 14° 303° (WNW) 02:43:27 145.980
ITAMSAT 1 31 Aug 02:41:41 02:43:10 11° 85° (E) 02:44:39 435.822/435.867
QB50P2 31 Aug 02:48:23 02:49:05 10° 306° (NW) 02:49:46 145.880/145.840
POLYITAN 1 31 Aug 02:51:04 02:51:34 10° 306° (NW) 02:52:05 437.675
SO-50 31 Aug 02:52:23 02:55:16 16° 345° (NNW) 02:58:07 436.795
Gurwin Techsat 1B 31 Aug 02:56:04 03:01:12 46° 99° (E) 03:06:17 435.225
Oscar 19 31 Aug 02:56:17 03:01:32 88° 106° (ESE) 03:06:45 437.125/150
KKS-1 31 Aug 03:15:02 03:18:55 30° 64° (ENE) 03:22:49 437.445
ITUPSAT 1 31 Aug 03:17:53 03:22:23 42° 262° (W) 03:26:55 437.325
BUGSAT 1 31 Aug 03:19:58 03:21:28 12° 304° (NW) 03:22:57 437.445
AO-7 31 Aug 03:22:47 03:28:15 19° 86° (E) 03:33:41 29.400- 29.500
JAS-2 31 Aug 03:24:28 03:29:44 25° 304° (WNW) 03:35:25 435.910
Cosmos 2491 31 Aug 03:26:03 03:32:32 22° 53° (NE) 03:38:59 435.465 / 435.565
RS-15 31 Aug 03:32:56 03:44:36 61° 323° (NW) 03:56:51 29.354- 29.394
STARS 31 Aug 03:41:04 03:44:50 28° 64° (ENE) 03:48:37 437.465
CUBESAT XI-V 31 Aug 03:42:24 03:44:16 12° 54° (NE) 03:46:09 437.345
PHONESAT 2.4 31 Aug 03:44:12 03:45:53 14° 186° (S) 03:47:35 2401.200-2431.200
MOZHAYETS 4 31 Aug 03:46:22 03:50:53 68° 73° (ENE) 03:55:26
SWISSCUBE 31 Aug 03:50:17 03:53:48 20° 269° (W) 03:57:20 437.505
BEESAT 31 Aug 04:07:44 04:10:39 16° 271° (W) 04:13:36 436.000
ITAMSAT 1 31 Aug 04:18:22 04:23:34 73° 104° (ESE) 04:28:44 435.822/435.867
SO-50 31 Aug 04:35:07 04:37:38 14° 10° (N) 04:40:08 436.795
Gurwin Techsat 1B 31 Aug 04:36:21 04:40:59 31° 298° (WNW) 04:45:37 435.225
Oscar 19 31 Aug 04:36:50 04:40:11 18° 305° (NW) 04:43:32 437.125/150
YUBILEINY 31 Aug 04:47:19 04:52:55 19° 73° (ENE) 04:58:29 435.215
KKS-1 31 Aug 04:51:15 04:55:24 36° 263° (W) 04:59:35 437.445
AO-85 31 Aug 05:06:48 05:11:47 45° 121° (ESE) 05:16:30 145.980
AO-7 31 Aug 05:14:03 05:22:26 77° 108° (ESE) 05:30:43 29.400- 29.500
CUBESAT XI-V 31 Aug 05:16:15 05:20:51 75° 73° (ENE) 05:25:31 437.345
STARS 31 Aug 05:16:55 05:21:04 38° 262° (W) 05:25:15 437.465
Cosmos 2491 31 Aug 05:22:10 05:31:05 77° 79° (E) 05:39:55 435.465 / 435.565
MOZHAYETS 4 31 Aug 05:25:44 05:28:33 16° 271° (W) 05:31:22
RS-15 31 Aug 05:48:53 06:00:03 40° 355° (N) 06:11:29 29.354- 29.394
ITAMSAT 1 31 Aug 05:58:46 06:02:32 21° 303° (WNW) 06:06:17 435.822/435.867
HORYU 2 31 Aug 05:59:38 06:03:52 42° 99° (E) 06:08:03 437.375
BRITE-PL 31 Aug 06:12:44 06:17:56 34° 93° (E) 06:22:58 437.365/2234.400
SO-50 31 Aug 06:15:28 06:19:36 29° 34° (NNE) 06:23:37 436.795
Cosmos 2504 31 Aug 06:29:01 06:35:36 28° 82° (E) 06:41:50 435.465 / 435.565
STRAND 1 31 Aug 06:29:15 06:33:42 31° 63° (ENE) 06:38:10 437.568
YUBILEINY 31 Aug 06:39:23 06:48:12 77° 95° (E) 06:57:02 435.215
AO-85 31 Aug 06:47:30 06:52:22 40° 320° (NW) 06:56:55 145.980
CUBESAT XI-V 31 Aug 06:56:09 06:58:48 15° 272° (W) 07:01:29 437.345
DOVE 4 31 Aug 06:56:21 06:59:43 18° 87° (E) 07:02:58 437.250
NOAA 18 31 Aug 06:57:39 07:02:26 30° 95° (E) 07:07:10 137.9125
AO-7 31 Aug 07:07:27 07:14:34 33° 310° (NW) 07:21:39 29.400- 29.500
GOMX 1 31 Aug 07:07:43 07:12:57 46° 97° (E) 07:17:53 467.674
NOAA 15 31 Aug 07:14:16 07:19:32 57° 101° (ESE) 07:24:45 137.62
Cubesat XI-IV 31 Aug 07:14:52 07:20:00 46° 99° (E) 07:25:07 437.490
HO-68 31 Aug 07:16:13 07:16:44 10° 80° (E) 07:17:16 435.675
Cosmos 2491 31 Aug 07:19:58 07:27:03 28° 281° (W) 07:34:09 435.465 / 435.565
CUTE-I 31 Aug 07:25:26 07:30:42 57° 101° (E) 07:35:55 437.470
ISS 31 Aug 07:27:20 07:28:29 11° 135° (SE) 07:29:36 145.825
LilacSat-2 31 Aug 07:33:40 07:37:28 78° 103° (ESE) 07:41:14 437.200
HORYU 2 31 Aug 07:36:36 07:40:14 25° 297° (WNW) 07:43:51 437.375
BRITE-PL 31 Aug 07:51:04 07:56:30 46° 293° (WNW) 08:01:48 437.365/2234.400
SO-50 31 Aug 07:55:50 08:00:25 61° 235° (SW) 08:04:52 436.795
RS-15 31 Aug 08:04:05 08:16:00 51° 28° (NNE) 08:27:57 29.354- 29.394
PRISM 31 Aug 08:05:17 08:08:48 27° 64° (ENE) 08:12:19 437.425
STRAND 1 31 Aug 08:07:55 08:12:46 43° 262° (W) 08:17:38 437.568
Cosmos 2504 31 Aug 08:20:06 08:28:22 73° 282° (WNW) 08:36:03 435.465 / 435.565
BEESAT 3 31 Aug 08:20:26 08:21:08 10° 109° (ESE) 08:21:51 437.485
CANX-2 31 Aug 08:25:18 08:29:00 28° 94° (E) 08:32:39 2200.000
COMPASS 1 31 Aug 08:28:52 08:31:06 14° 88° (E) 08:33:21 437.405
CUTE 1.7 + AOD 2 31 Aug 08:30:38 08:34:18 28° 94° (E) 08:37:57 437.475
AO-85 31 Aug 08:31:04 08:34:02 16° 342° (NNW) 08:36:53 145.980
DOVE 4 31 Aug 08:32:56 08:38:00 69° 288° (WNW) 08:42:44 437.250
NOAA 18 31 Aug 08:38:03 08:43:18 48° 294° (WNW) 08:48:31 137.9125
YUBILEINY 31 Aug 08:38:25 08:45:58 30° 299° (WNW) 08:53:33 435.215
CUBEBUG 2 31 Aug 08:39:01 08:41:02 13° 87° (E) 08:43:04 437.445
CUSAT 1 31 Aug 08:41:04 08:46:12 24° 63° (ENE) 08:52:03 437.405
CINEMA 3 31 Aug 08:45:40 08:50:05 50° 99° (E) 08:54:16 145.822/145.860
GOMX 1 31 Aug 08:46:05 08:50:49 31° 297° (WNW) 08:55:21 467.674
AIST 1 31 Aug 08:52:12 08:56:06 32° 90° (E) 09:00:02
NOAA 15 31 Aug 08:54:37 08:58:59 26° 300° (WNW) 09:03:19 137.62
Cubesat XI-IV 31 Aug 08:55:17 08:59:55 31° 298° (WNW) 09:04:32 437.490
HO-68 31 Aug 08:59:08 09:06:09 54° 101° (E) 09:13:08 435.675
ISS 31 Aug 09:01:08 09:04:21 52° 153° (SSE) 09:07:34 145.825
AO-7 31 Aug 09:02:05 09:04:50 12° 335° (NNW) 09:07:34 29.400- 29.500
CUTE-I 31 Aug 09:06:05 09:10:26 26° 300° (WNW) 09:14:45 437.470
ANTELSAT 31 Aug 09:06:07 09:08:59 17° 59° (ENE) 09:11:49 437.575/2403.000
LilacSat-2 31 Aug 09:09:45 09:11:13 12° 301° (WNW) 09:12:41 437.200
SEEDS 31 Aug 09:31:05 09:35:20 81° 103° (ESE) 09:39:33 437.485
Oscar 11 31 Aug 09:32:45 09:36:06 21° 92° (E) 09:39:25 145.826/435.025
BRITE-PL 31 Aug 09:33:03 09:33:37 10° 313° (NW) 09:34:11 437.365/2234.400
TIGRISAT 31 Aug 09:34:44 09:38:33 27° 65° (ENE) 09:42:19 435.000
PRISM 31 Aug 09:40:16 09:44:01 34° 263° (W) 09:47:48 437.425
BEESAT 2 31 Aug 09:44:24 09:48:03 37° 120° (ESE) 09:51:45 435.950
FUNcube-1 31 Aug 09:45:28 09:48:57 25° 94° (E) 09:52:23 145.935
AAUSAT CUBESAT 2 31 Aug 09:50:53 09:55:05 74° 103° (ESE) 09:59:15 437.432
BEESAT 3 31 Aug 09:54:11 09:58:06 82° 128° (SE) 10:02:04 437.485
CANX-2 31 Aug 10:01:03 10:04:54 34° 293° (WNW) 10:08:45 2200.000
COMPASS 1 31 Aug 10:02:58 10:07:08 68° 286° (WNW) 10:11:18 437.405
UWE-3 31 Aug 10:03:13 10:07:23 62° 101° (E) 10:11:29 435.000/436.395/437.385
POPSAT HIP 1 31 Aug 10:03:31 10:04:02 10° 54° (NE) 10:04:33 437.405
UNISAT 6 31 Aug 10:03:58 10:08:23 52° 71° (ENE) 10:12:44 437.425
CUTE 1.7 + AOD 2 31 Aug 10:06:21 10:10:12 34° 292° (WNW) 10:14:03 437.475
ZACube-1 31 Aug 10:08:52 10:12:53 46° 99° (E) 10:16:52 437.345
DOVE 4 31 Aug 10:12:34 10:14:42 13° 308° (NW) 10:16:48 437.250
CUBEBUG 2 31 Aug 10:14:00 10:18:14 71° 287° (WNW) 10:22:22 437.445
AO-85 31 Aug 10:14:16 10:16:23 13° 7° (N) 10:18:27 145.980
DANDE 31 Aug 10:14:22 10:19:30 41° 72° (ENE) 10:26:02 436.750
JAS-2 31 Aug 10:15:15 10:17:30 13° 45° (NE) 10:19:51 435.910
RS-15 31 Aug 10:17:16 10:29:37 78° 237° (WSW) 10:41:49 29.354- 29.394
Cosmos 2504 31 Aug 10:17:54 10:23:11 19° 305° (NW) 10:28:17 435.465 / 435.565
HUMSAT D 31 Aug 10:21:41 10:24:02 15° 89° (E) 10:26:24 437.325/437.525
NOAA 18 31 Aug 10:21:49 10:22:44 10° 315° (NW) 10:23:39 137.9125
CUSAT 1 31 Aug 10:22:16 10:28:48 87° 261° (W) 10:36:37 437.405
CINEMA 3 31 Aug 10:23:26 10:26:53 22° 299° (WNW) 10:30:13 145.822/145.860
DUCHIFAT 1 31 Aug 10:24:26 10:26:45 14° 58° (ENE) 10:29:03 145.980
AIST 1 31 Aug 10:29:53 10:33:42 29° 290° (WNW) 10:37:35
QB50P2 31 Aug 10:32:01 10:35:06 20° 61° (ENE) 10:38:10 145.880/145.840
POLYITAN 1 31 Aug 10:34:30 10:37:35 20° 61° (ENE) 10:40:41 437.675
ISS 31 Aug 10:37:33 10:40:50 62° 353° (N) 10:44:06 145.825
NANOSAT C BR1 31 Aug 10:39:15 10:42:23 20° 62° (ENE) 10:45:32 145.865
ANTELSAT 31 Aug 10:40:40 10:45:13 72° 257° (WSW) 10:49:41 437.575/2403.000
HO-68 31 Aug 10:47:11 10:53:43 39° 301° (WNW) 11:00:11 435.675
AIST 2 31 Aug 10:55:21 10:55:49 10° 108° (ESE) 10:56:16 435.215
DELFI C3 31 Aug 10:56:14 11:00:14 64° 101° (E) 11:04:14 145.870
GONETS M04 31 Aug 10:57:26 11:04:34 29° 80° (E) 11:11:45
BUGSAT 1 31 Aug 11:02:45 11:05:21 16° 59° (ENE) 11:07:57 437.445
SEEDS 31 Aug 11:08:17 11:10:28 14° 302° (WNW) 11:12:39 437.485
Oscar 11 31 Aug 11:08:19 11:12:28 46° 290° (WNW) 11:16:35 145.826/435.025
TIGRISAT 31 Aug 11:10:50 11:15:07 39° 262° (W) 11:19:20 435.000
Cosmos 2499 31 Aug 11:14:53 11:21:05 26° 82° (E) 11:26:58 435.465 / 435.565
FUNcube-1 31 Aug 11:21:30 11:25:17 35° 292° (WNW) 11:29:03 145.935
BEESAT 2 31 Aug 11:22:17 11:25:55 33° 320° (NW) 11:29:35 435.950
PCSat 31 Aug 11:23:23 11:28:24 40° 115° (ESE) 11:33:26 145.827
QB50P1 31 Aug 11:24:26 11:28:37 55° 71° (ENE) 11:32:47 145.935-145.965
AAUSAT CUBESAT 2 31 Aug 11:27:41 11:30:02 15° 301° (WNW) 11:32:23 437.432
BEESAT 3 31 Aug 11:33:16 11:36:16 20° 329° (NNW) 11:39:16 437.485
POPSAT HIP 1 31 Aug 11:34:46 11:39:01 68° 72° (ENE) 11:43:17 437.405
M-CUBED/EXP-1 PRIME 31 Aug 11:35:51 11:38:06 14° 94° (E) 11:40:14 437.505
UWE-3 31 Aug 11:40:45 11:43:25 17° 300° (WNW) 11:46:04 435.000/436.395/437.385
UNISAT 6 31 Aug 11:42:00 11:45:24 20° 268° (W) 11:48:45 437.425
ZACube-1 31 Aug 11:45:47 11:48:55 21° 298° (WNW) 11:52:02 437.345
CUBEBUG 2 31 Aug 11:53:43 11:54:03 10° 306° (NW) 11:54:23 437.445
AO-85 31 Aug 11:54:38 11:58:25 26° 32° (NNE) 12:01:57 145.980
HUMSAT D 31 Aug 11:56:01 12:00:05 61° 287° (WNW) 12:04:07 437.325/437.525
JAS-2 31 Aug 11:56:03 12:01:16 59° 69° (ENE) 12:07:02 435.910
DANDE 31 Aug 11:57:05 12:02:17 41° 265° (W) 12:08:52 436.750
DUCHIFAT 1 31 Aug 11:57:38 12:01:53 79° 257° (WSW) 12:06:09 145.980
AISAT 31 Aug 11:57:47 12:00:34 16° 89° (E) 12:03:20 437.250
ESTCUBE 1 31 Aug 12:05:20 12:09:25 32° 96° (E) 12:13:29 437.505/2401.250
CUSAT 1 31 Aug 12:05:32 12:10:15 21° 275° (W) 12:15:29 437.405
QB50P2 31 Aug 12:06:21 12:10:33 54° 259° (W) 12:14:46 145.880/145.840
POLYITAN 1 31 Aug 12:08:51 12:13:03 54° 259° (W) 12:17:15 437.675
50 SAT 31 Aug 12:13:08 12:15:44 18° 92° (E) 12:18:20 437.505
NANOSAT C BR1 31 Aug 12:13:39 12:17:49 51° 260° (W) 12:21:59 145.865
ISS 31 Aug 12:14:12 12:17:30 72° 13° (NNE) 12:20:47 145.825
AIST 2 31 Aug 12:29:25 12:33:31 76° 128° (SE) 12:37:41 435.215
RS-15 31 Aug 12:31:06 12:40:09 25° 261° (W) 12:49:07 29.354- 29.394
DELFI C3 31 Aug 12:32:14 12:34:39 15° 300° (WNW) 12:37:02 145.870
SPROUT 31 Aug 12:34:21 12:37:22 19° 91° (E) 12:40:23 437.525
CUBEBUG 1 31 Aug 12:35:05 12:39:18 41° 98° (E) 12:43:28 437.445
BUGSAT 1 31 Aug 12:36:00 12:40:15 70° 258° (WSW) 12:44:29 437.445
HO-68 31 Aug 12:37:29 12:39:32 11° 325° (NW) 12:41:35 435.675
AO-7 31 Aug 12:38:53 12:42:56 15° 31° (NNE) 12:47:00 29.400- 29.500
Oscar 19 31 Aug 12:39:02 12:43:36 32° 63° (ENE) 12:48:12 437.125/150
VELOX 1 31 Aug 12:43:41 12:47:56 40° 98° (E) 12:52:07 145.980
Gurwin Techsat 1B 31 Aug 12:43:43 12:47:29 20° 56° (ENE) 12:51:16 435.225
DX 1 31 Aug 12:47:19 12:51:12 30° 96° (E) 12:55:04 434.975-435.025
GONETS M04 31 Aug 12:51:48 13:00:35 75° 282° (WNW) 13:09:29
AUBIESAT-1 31 Aug 12:59:41 13:03:46 87° 110° (ESE) 13:07:30 437.475
QB50P1 31 Aug 13:01:47 13:04:43 18° 269° (W) 13:07:39 145.935-145.965
BEESAT 2 31 Aug 13:03:23 13:04:54 12° 343° (NNW) 13:06:26 435.950
Cosmos 2499 31 Aug 13:05:39 13:13:36 73° 283° (WNW) 13:20:59 435.465 / 435.565
PCSat 31 Aug 13:06:36 13:11:47 44° 315° (NW) 13:17:00 145.827
M-CUBED/EXP-1 PRIME 31 Aug 13:09:01 13:13:08 63° 294° (WNW) 13:16:54 437.505
POPSAT HIP 1 31 Aug 13:12:53 13:15:16 15° 271° (W) 13:17:40 437.405
UKube-1 31 Aug 13:19:43 13:23:57 49° 100° (E) 13:28:09 .
O/OREOS (USA 219) 31 Aug 13:26:56 13:31:03 37° 108° (ESE) 13:35:15 437.305
AISAT 31 Aug 13:33:04 13:37:31 66° 288° (WNW) 13:41:55 437.250
AO-85 31 Aug 13:34:57 13:39:17 65° 235° (SW) 13:43:17 145.980
ESTCUBE 1 31 Aug 13:42:08 13:46:14 34° 294° (WNW) 13:50:20 437.505/2401.250
JAS-2 31 Aug 13:42:45 13:46:57 23° 271° (W) 13:51:27 435.910
50 SAT 31 Aug 13:46:03 13:49:29 39° 290° (WNW) 13:52:54 437.505
ISS 31 Aug 13:50:48 13:53:50 35° 212° (SSW) 13:56:52 145.825
ITAMSAT 1 31 Aug 14:02:25 14:06:49 29° 61° (ENE) 14:11:13 435.822/435.867
AIST 2 31 Aug 14:09:10 14:12:28 22° 328° (NNW) 14:15:48 435.215
SPROUT 31 Aug 14:09:27 14:13:39 52° 289° (WNW) 14:17:47 437.525
SWISSCUBE 31 Aug 14:09:44 14:10:21 10° 85° (E) 14:10:58 437.505
CUBEBUG 1 31 Aug 14:11:43 14:15:25 26° 296° (WNW) 14:19:05 437.445
TISAT 1 31 Aug 14:13:24 14:17:25 42° 98° (E) 14:21:23 437.305
Oscar 19 31 Aug 14:17:55 14:22:49 42° 262° (W) 14:27:47 437.125/150
VELOX 1 31 Aug 14:20:28 14:24:14 27° 297° (WNW) 14:27:59 145.980
Gurwin Techsat 1B 31 Aug 14:21:33 14:26:52 78° 256° (WSW) 14:32:14 435.225
DX 1 31 Aug 14:23:27 14:27:25 34° 294° (WNW) 14:31:22 434.975-435.025
BEESAT 31 Aug 14:24:52 14:27:13 13° 87° (E) 14:29:32 436.000
AO-7 31 Aug 14:25:57 14:33:36 42° 55° (NE) 14:41:14 29.400- 29.500
AUBIESAT-1 31 Aug 14:35:33 14:37:33 13° 311° (NW) 14:39:29 437.475
M-CUBED/EXP-1 PRIME 31 Aug 14:46:12 14:46:44 10° 315° (NW) 14:47:18 437.505
YUBILEINY 31 Aug 14:49:11 14:53:09 13° 43° (NE) 14:57:06 435.215
GONETS M04 31 Aug 14:52:53 14:59:11 21° 307° (NW) 15:05:33
PCSat 31 Aug 14:53:15 14:56:37 16° 339° (NNW) 14:59:59 145.827
BEESAT 3 31 Aug 14:53:31 14:54:52 11° 16° (NNE) 14:56:14 437.485
UKube-1 31 Aug 14:56:22 14:59:43 22° 299° (WNW) 15:03:03 .
Cosmos 2499 31 Aug 15:03:12 15:08:06 18° 305° (NW) 15:12:51 435.465 / 435.565
O/OREOS (USA 219) 31 Aug 15:06:27 15:10:31 32° 308° (NW) 15:14:38 437.305
AISAT 31 Aug 15:12:07 15:13:08 11° 307° (NW) 15:14:08 437.250
ITUPSAT 1 31 Aug 15:13:39 15:18:03 35° 97° (E) 15:22:25 437.325
HORYU 2 31 Aug 15:29:01 15:30:11 11° 53° (NE) 15:31:21 437.375
MOZHAYETS 4 31 Aug 15:38:54 15:40:37 12° 86° (E) 15:42:19
ITAMSAT 1 31 Aug 15:41:03 15:46:04 49° 260° (W) 15:51:07 435.822/435.867
SWISSCUBE 31 Aug 15:44:12 15:48:59 75° 104° (ESE) 15:53:45 437.505
TISAT 1 31 Aug 15:49:31 15:52:52 24° 297° (WNW) 15:56:13 437.305
AIST 2 31 Aug 15:51:33 15:52:27 11° 352° (N) 15:53:20 435.215
BRITE-PL 31 Aug 15:53:35 15:55:04 11° 48° (NE) 15:56:36 437.365/2234.400
BEESAT 31 Aug 16:00:52 16:05:40 86° 284° (WNW) 16:10:26 436.000
Gurwin Techsat 1B 31 Aug 16:05:33 16:07:43 12° 275° (W) 16:09:54 435.225
Cosmos 2504 31 Aug 16:16:19 16:19:04 12° 47° (NE) 16:21:48 435.465 / 435.565
AO-7 31 Aug 16:17:55 16:26:08 59° 256° (WSW) 16:34:24 29.400- 29.500
BEESAT 2 31 Aug 16:20:49 16:23:52 20° 31° (NNE) 16:26:54 435.950
BEESAT 3 31 Aug 16:30:07 16:33:44 32° 39° (NE) 16:37:19 437.485
Cosmos 2491 31 Aug 16:36:15 16:41:39 18° 73° (ENE) 16:47:05 435.465 / 435.565
KKS-1 31 Aug 16:37:34 16:41:33 30° 96° (E) 16:45:29 437.445
PCSat 31 Aug 16:40:04 16:42:23 13° 6° (N) 16:44:42 145.827
YUBILEINY 31 Aug 16:44:16 16:52:44 49° 70° (ENE) 17:01:06 435.215
GOMX 1 31 Aug 16:44:21 16:47:17 15° 53° (NE) 16:50:16 467.674
NOAA 18 31 Aug 16:50:15 16:53:45 17° 53° (NE) 16:57:15 137.9125
ITUPSAT 1 31 Aug 16:51:35 16:55:51 33° 296° (WNW) 17:00:08 437.325
NOAA 15 31 Aug 17:00:32 17:04:42 24° 59° (ENE) 17:08:55 137.62
HORYU 2 31 Aug 17:01:30 17:05:55 69° 72° (ENE) 17:10:22 437.375
STARS 31 Aug 17:01:52 17:05:39 27° 95° (E) 17:09:23 437.465
Cubesat XI-IV 31 Aug 17:03:11 17:07:06 21° 57° (ENE) 17:11:01 437.490
CUBESAT XI-V 31 Aug 17:09:43 17:12:16 14° 87° (E) 17:14:48 437.345
CUTE-I 31 Aug 17:13:12 17:17:27 25° 59° (ENE) 17:21:43 437.470
MOZHAYETS 4 31 Aug 17:13:51 17:18:28 89° 98° (E) 17:23:04
SWISSCUBE 31 Aug 17:23:05 17:26:15 18° 303° (WNW) 17:29:27 437.505
BRITE-PL 31 Aug 17:27:20 17:32:17 53° 69° (ENE) 17:37:38 437.365/2234.400
AIST 2 31 Aug 17:30:57 17:32:46 12° 16° (NNE) 17:34:34 435.215
BEESAT 31 Aug 17:40:09 17:42:45 15° 305° (NW) 17:45:21 436.000
HO-68 31 Aug 17:48:08 17:52:31 18° 44° (NE) 17:56:55 435.675
BEESAT 2 31 Aug 17:58:10 18:02:13 85° 231° (SW) 18:06:13 435.950
DOVE 4 31 Aug 18:04:53 18:09:28 31° 64° (ENE) 18:14:05 437.250
Cosmos 2504 31 Aug 18:07:26 18:14:32 53° 73° (ENE) 18:21:31 435.465 / 435.565
BEESAT 3 31 Aug 18:07:45 18:11:28 39° 239° (WSW) 18:15:10 437.485
KKS-1 31 Aug 18:14:05 18:18:08 34° 294° (WNW) 18:22:10 437.445
CINEMA 3 31 Aug 18:16:41 18:19:07 14° 56° (NE) 18:21:31 145.822/145.860
AO-7 31 Aug 18:17:20 18:20:46 13° 278° (W) 18:24:13 29.400- 29.500
GOMX 1 31 Aug 18:19:09 18:24:25 73° 73° (ENE) 18:29:54 467.674
LilacSat-2 31 Aug 18:19:26 18:23:15 71° 74° (ENE) 18:27:04 437.200
PCSat 31 Aug 18:23:31 18:27:51 23° 32° (NNE) 18:32:10 145.827
NOAA 18 31 Aug 18:28:06 18:33:39 84° 72° (ENE) 18:39:12 137.9125
Cosmos 2491 31 Aug 18:28:16 18:36:57 76° 95° (E) 18:45:44 435.465 / 435.565
STARS 31 Aug 18:38:01 18:42:06 37° 293° (WNW) 18:46:07 437.465
NOAA 15 31 Aug 18:38:54 18:44:06 61° 258° (WSW) 18:49:22 137.62
HORYU 2 31 Aug 18:40:17 18:42:58 16° 271° (W) 18:45:38 437.375
Cubesat XI-IV 31 Aug 18:41:19 18:46:39 74° 257° (WSW) 18:52:01 437.490
YUBILEINY 31 Aug 18:41:21 18:49:33 46° 273° (W) 18:57:41 435.215
CUBESAT XI-V 31 Aug 18:45:30 18:50:15 81° 284° (WNW) 18:54:58 437.345
CUTE-I 31 Aug 18:51:53 18:57:09 60° 259° (WSW) 19:02:26 437.470
MOZHAYETS 4 31 Aug 18:52:31 18:54:59 15° 304° (WNW) 18:57:28
SEEDS 31 Aug 18:53:51 18:55:46 13° 57° (ENE) 18:57:41 437.485
AIST 1 31 Aug 18:55:14 18:57:47 15° 63° (ENE) 19:00:19
BRITE-PL 31 Aug 19:06:52 19:11:06 26° 270° (W) 19:15:37 437.365/2234.400
AIST 2 31 Aug 19:08:38 19:12:28 33° 39° (NE) 19:16:17 435.215
AAUSAT CUBESAT 2 31 Aug 19:12:53 19:14:16 11° 56° (ENE) 19:15:39 437.432
CANX-2 31 Aug 19:22:07 19:25:55 34° 67° (ENE) 19:29:44 2200.000
COMPASS 1 31 Aug 19:23:46 19:26:32 18° 61° (ENE) 19:29:18 437.405
CUTE 1.7 + AOD 2 31 Aug 19:27:20 19:31:08 34° 67° (ENE) 19:34:56 437.475
UWE-3 31 Aug 19:30:32 19:32:32 13° 57° (ENE) 19:34:30 435.000/436.395/437.385
HO-68 31 Aug 19:31:53 19:38:56 62° 66° (ENE) 19:46:02 435.675
BEESAT 2 31 Aug 19:38:04 19:39:22 11° 250° (WSW) 19:40:40 435.950
CUBEBUG 2 31 Aug 19:40:28 19:43:59 22° 62° (ENE) 19:47:25 437.445
DOVE 4 31 Aug 19:41:53 19:46:57 47° 262° (W) 19:52:06 437.250
CINEMA 3 31 Aug 19:50:30 19:55:30 77° 74° (ENE) 20:00:24 145.822/145.860
LilacSat-2 31 Aug 19:56:42 19:58:02 11° 272° (W) 19:59:21 437.200
GOMX 1 31 Aug 19:59:17 20:03:04 20° 273° (W) 20:06:58 467.674
Cosmos 2504 31 Aug 20:01:18 20:07:36 34° 275° (W) 20:13:51 435.465 / 435.565
PCSat 31 Aug 20:06:35 20:12:04 83° 54° (NE) 20:17:30 145.827
NOAA 18 31 Aug 20:11:28 20:15:00 17° 271° (W) 20:18:34 137.9125
STRAND 1 31 Aug 20:13:33 20:18:29 46° 99° (E) 20:23:23 437.568
CUBESAT XI-V 31 Aug 20:24:38 20:26:53 13° 305° (NW) 20:29:09 437.345
Cubesat XI-IV 31 Aug 20:25:50 20:27:40 12° 275° (W) 20:29:30 437.490
SEEDS 31 Aug 20:26:41 20:30:51 86° 256° (WSW) 20:35:03 437.485
Cosmos 2491 31 Aug 20:27:15 20:34:44 31° 299° (WNW) 20:42:18 435.465 / 435.565
Oscar 11 31 Aug 20:31:31 20:35:12 29° 65° (ENE) 20:38:54 145.826/435.025
AIST 1 31 Aug 20:31:32 20:35:57 73° 263° (W) 20:40:19
FUNcube-1 31 Aug 20:44:46 20:48:44 35° 68° (ENE) 20:52:40 145.935
AAUSAT CUBESAT 2 31 Aug 20:44:57 20:49:04 84° 74° (ENE) 20:53:13 437.432
AIST 2 31 Aug 20:47:05 20:51:02 41° 239° (WSW) 20:54:59 435.215
COMPASS 1 31 Aug 20:57:38 21:01:42 58° 260° (W) 21:05:49 437.405
CANX-2 31 Aug 20:58:14 21:01:50 27° 266° (W) 21:05:27 2200.000
GONETS M04 31 Aug 21:00:38 21:06:48 20° 51° (NE) 21:12:57
Cosmos 2499 31 Aug 21:00:42 21:02:59 12° 47° (NE) 21:05:14 435.465 / 435.565
CUTE 1.7 + AOD 2 31 Aug 21:03:24 21:07:01 27° 266° (W) 21:10:39 437.475
UWE-3 31 Aug 21:03:50 21:08:21 85° 77° (ENE) 21:12:46 435.000/436.395/437.385
ZACube-1 31 Aug 21:08:23 21:12:44 63° 73° (ENE) 21:16:59 437.345
CUBEBUG 2 31 Aug 21:15:47 21:20:18 53° 260° (W) 21:24:43 437.445
HUMSAT D 31 Aug 21:16:59 21:19:57 19° 62° (ENE) 21:22:54 437.325/437.525
PRISM 31 Aug 21:17:20 21:20:45 24° 94° (E) 21:24:08 437.425
